Date String (YYYY-MM-DD hh:mm:ss) UTC,Instrument flags,absolute air pressure of the measurement (hPa),sample flow rate (lpm),inlet stack bypass flow (lpm),air temperature of the measurement (°C),ambient temperature measured by the external sensor (°C),aerosol sample conditioner tube jacket temperature (°C),OPC LED temperature (°C),internal box temperature (°C),relative humidity of the measurement (%),span deviation,mass concentration of particles derived from Lorenz-Mie calculation of OPC scattering (μg/m³),mass concentration of particles derived from Lorenz-Mie calculation of OPC scattering (μg/m³),mass concentration of particles derived from Lorenz-Mie calculation of OPC scattering (μg/m³)
DateTimeUTC,F1_M11,P_M11,Q1_M11,Q2_M11,T1_M11,T2_M11,T3_M11,T4_M11,T5_M11,U1_M11,ZSPAN_M11,X0_M11,X2_M11,X1_M11
2024-02-29 05:00:00,SystemResetWarning,0827.8,5.00,000.00,021.1,020.3,000.0,029.4,022.9,06.5,0000.0,0010.49,0003.76,0002.07
2024-02-29 05:01:00,SystemResetWarning,0827.7,4.99,000.00,021.1,020.3,000.0,029.4,022.9,06.9,0000.0,0010.59,0003.80,0002.09
2024-02-29 05:02:00,SystemResetWarning,0827.7,5.00,000.00,021.1,020.3,000.0,029.4,022.8,07.5,0000.0,0010.64,0003.85,0002.09
2024-02-29 05:03:00,SystemResetWarning,0827.7,4.99,000.00,021.1,020.3,000.0,029.4,022.9,07.8,0000.0,0010.10,0003.82,0002.11
2024-02-29 05:04:00,SystemResetWarning,0827.7,4.99,000.00,021.1,020.3,000.0,029.4,022.8,08.0,0000.0,0010.65,0003.80,0002.10
2024-02-29 05:05:00,SystemResetWarning,0827.7,4.99,000.00,021.1,020.3,000.0,029.4,022.9,07.8,0000.0,0011.14,0003.91,0002.11
2024-02-29 05:06:00,SystemResetWarning,0827.8,5.01,000.00,021.1,020.3,000.0,029.4,022.9,07.9,0000.0,0011.08,0003.92,0002.10
2024-02-29 05:07:00,SystemResetWarning,0827.8,5.01,000.00,021.1,020.3,000.0,029.4,022.9,08.2,0000.0,0010.39,0003.96,0002.10
2024-02-29 05:08:00,SystemResetWarning,0827.8,5.01,000.00,021.1,020.3,000.0,029.5,022.9,08.3,0000.0,0010.36,0003.98,0002.12
2024-02-29 05:09:00,SystemResetWarning,0827.8,5.00,000.00,021.1,020.3,000.0,029.5,022.9,08.3,0000.0,0010.61,0004.01,0002.15
2024-02-29 05:10:00,SystemResetWarning,0827.8,4.99,000.00,021.1,020.3,000.0,029.5,022.9,08.1,0000.0,0010.21,0003.98,0002.15
2024-02-29 05:11:00,SystemResetWarning,0827.8,5.00,000.00,021.1,020.3,000.0,029.5,022.9,08.1,0000.0,0009.91,0003.96,0002.15
2024-02-29 05:12:00,SystemResetWarning,0827.8,5.00,000.00,021.1,020.3,000.0,029.5,022.9,08.3,0000.0,0010.08,0003.95,0002.15
2024-02-29 05:13:00,SystemResetWarning,0827.8,5.00,000.00,021.1,020.3,000.0,029.5,022.8,08.3,0000.0,0010.49,0003.93,0002.16
2024-02-29 05:14:00,SystemResetWarning,0827.8,4.99,000.00,021.1,020.3,000.0,029.5,022.8,08.3,0000.0,0010.70,0003.97,0002.17
2024-02-29 05:15:00,SystemResetWarning,0827.7,5.00,000.00,021.1,020.3,000.0,029.5,022.8,08.3,0000.0,0011.67,0004.03,0002.19
2024-02-29 05:16:00,SystemResetWarning,0827.7,5.00,000.00,021.1,020.3,000.0,029.4,022.8,08.4,0000.0,0012.16,0003.97,0002.21
2024-02-29 05:17:00,SystemResetWarning,0827.7,5.00,000.00,021.1,020.3,000.0,029.4,022.8,08.4,0000.0,0012.52,0003.95,0002.24
2024-02-29 05:18:00,SystemResetWarning,0827.7,5.01,000.00,021.1,020.3,000.0,029.4,022.8,08.4,0000.0,0012.73,0003.99,0002.25
2024-02-29 05:19:00,SystemResetWarning,0827.7,5.01,000.00,021.1,020.3,000.0,029.4,022.9,08.5,0000.0,0013.01,0004.01,0002.25
2024-02-29 05:20:00,SystemResetWarning,0827.7,5.00,000.00,021.1,020.3,000.0,029.5,022.9,08.3,0000.0,0013.77,0004.07,0002.24
2024-02-29 05:21:00,SystemResetWarning,0827.7,5.00,000.00,021.1,020.3,000.0,029.5,022.8,08.0,0000.0,0014.05,0004.11,0002.26
2024-02-29 05:22:00,SystemResetWarning,0827.7,5.00,000.00,021.1,020.3,000.0,029.4,022.8,07.9,0000.0,0014.23,0004.13,0002.26
2024-02-29 05:23:00,SystemResetWarning,0827.7,5.00,000.00,021.0,020.3,000.0,029.5,022.8,07.9,0000.0,0014.52,0004.16,0002.27
2024-02-29 05:24:00,SystemResetWarning,0827.7,4.99,000.00,021.0,020.3,000.0,029.5,022.8,07.8,0000.0,0013.96,0004.15,0002.28
2024-02-29 05:25:00,SystemResetWarning,0827.7,5.00,000.00,021.0,020.3,000.0,029.5,022.8,07.9,0000.0,0014.77,0004.18,0002.29
2024-02-29 05:26:00,SystemResetWarning,0827.7,5.01,000.00,021.0,020.3,000.0,029.5,022.8,07.8,0000.0,0014.22,0004.13,0002.29
2024-02-29 05:27:00,SystemResetWarning,0827.7,5.00,000.00,021.0,020.3,000.0,029.5,022.8,07.9,0000.0,0013.86,0004.12,0002.30
2024-02-29 05:28:00,SystemResetWarning,0827.8,5.01,000.00,021.0,020.3,000.0,029.4,022.8,07.9,0000.0,0014.62,0004.11,0002.29
2024-02-29 05:29:00,SystemResetWarning,0827.7,4.99,000.00,021.0,020.3,000.0,029.4,022.8,08.0,0000.0,0014.43,0004.04,0002.30
2024-02-29 05:30:00,SystemResetWarning,0827.7,4.98,000.00,021.0,020.3,000.0,029.4,022.8,07.9,0000.0,0014.27,0003.99,0002.30
2024-02-29 05:31:00,SystemResetWarning,0827.7,5.00,000.00,021.1,020.3,000.0,029.4,022.8,07.9,0000.0,0013.42,0003.92,0002.29
2024-02-29 05:32:00,SystemResetWarning,0827.7,5.01,000.00,021.0,020.2,000.0,029.4,022.8,07.9,0000.0,0012.93,0003.90,0002.29
2024-02-29 05:33:00,SystemResetWarning,0827.6,5.01,000.00,021.0,020.2,000.0,029.4,022.8,07.9,0000.0,0012.88,0003.92,0002.28
2024-02-29 05:34:00,SystemResetWarning,0827.5,5.00,000.00,021.0,020.2,000.0,029.4,022.8,07.9,0000.0,0012.20,0003.87,0002.26
2024-02-29 05:35:00,SystemResetWarning,0827.5,4.99,000.00,021.0,020.2,000.0,029.4,022.7,07.9,0000.0,0012.29,0003.89,0002.23
2024-02-29 05:36:00,SystemResetWarning,0827.6,4.99,000.00,021.0,020.2,000.0,029.4,022.8,07.9,0000.0,0011.81,0003.88,0002.21
2024-02-29 05:37:00,SystemResetWarning,0827.5,5.00,000.00,021.0,020.2,000.0,029.4,022.8,07.9,0000.0,0011.54,0003.87,0002.19
2024-02-29 05:38:00,SystemResetWarning,0827.4,5.00,000.00,021.0,020.2,000.0,029.4,022.8,07.9,0000.0,0011.19,0003.85,0002.18
2024-02-29 05:39:00,SystemResetWarning,0827.3,5.00,000.00,021.0,020.2,000.0,029.4,022.8,07.8,0000.0,0010.67,0003.88,0002.18
2024-02-29 05:40:00,SystemResetWarning,0827.4,5.01,000.00,021.0,020.2,000.0,029.4,022.7,07.8,0000.0,0011.27,0003.90,0002.18
2024-02-29 05:41:00,SystemResetWarning,0827.4,5.00,000.00,021.0,020.2,000.0,029.4,022.8,07.8,0000.0,0011.96,0003.91,0002.18
2024-02-29 05:42:00,SystemResetWarning,0827.4,4.99,000.00,021.0,020.2,000.0,029.4,022.8,07.8,0000.0,0012.25,0003.91,0002.18
2024-02-29 05:43:00,SystemResetWarning,0827.4,5.00,000.00,021.0,020.2,000.0,029.4,022.8,07.8,0000.0,0012.37,0003.92,0002.18
2024-02-29 05:44:00,SystemResetWarning,0827.4,5.00,000.00,021.0,020.2,000.0,029.4,022.8,08.0,0000.0,0012.58,0003.92,0002.19
2024-02-29 05:45:00,SystemResetWarning,0827.4,5.00,000.00,021.0,020.2,000.0,029.4,022.8,08.0,0000.0,0012.84,0003.97,0002.22
2024-02-29 05:46:00,SystemResetWarning,0827.4,5.00,000.00,021.0,020.2,000.0,029.4,022.8,07.9,0000.0,0012.91,0003.96,0002.23
2024-02-29 05:47:00,SystemResetWarning,0827.4,5.00,000.00,021.0,020.2,000.0,029.4,022.8,07.9,0000.0,0013.51,0004.00,0002.25
2024-02-29 05:48:00,SystemResetWarning,0827.5,5.00,000.00,021.0,020.2,000.0,029.4,022.8,07.7,0000.0,0014.64,0004.01,0002.27
2024-02-29 05:49:00,SystemResetWarning,0827.4,5.00,000.00,021.0,020.2,000.0,029.4,022.8,07.7,0000.0,0014.18,0004.02,0002.27
2024-02-29 05:50:00,SystemResetWarning,0827.4,4.99,000.00,021.0,020.2,000.0,029.4,022.8,07.9,0000.0,0014.09,0004.11,0002.29
2024-02-29 05:51:00,SystemResetWarning,0827.4,5.00,000.00,021.0,020.2,000.0,029.4,022.7,07.9,0000.0,0013.90,0004.14,0002.31
2024-02-29 05:52:00,SystemResetWarning,0827.4,5.00,000.00,021.0,020.2,000.0,029.4,022.7,07.9,0000.0,0013.62,0004.19,0002.33
2024-02-29 05:53:00,SystemResetWarning,0827.4,5.00,000.00,021.0,020.2,000.0,029.4,022.7,07.9,0000.0,0013.94,0004.21,0002.35
2024-02-29 05:54:00,SystemResetWarning,0827.4,5.00,000.00,021.0,020.2,000.0,029.4,022.7,07.8,0000.0,0014.52,0004.23,0002.38
2024-02-29 05:55:00,SystemResetWarning,0827.4,4.99,000.00,021.0,020.2,000.0,029.4,022.7,07.7,0000.0,0014.73,0004.25,0002.39
2024-02-29 05:56:00,SystemResetWarning,0827.4,5.00,000.00,021.0,020.2,000.0,029.3,022.7,07.6,0000.0,0014.68,0004.21,0002.41
2024-02-29 05:57:00,SystemResetWarning,0827.4,5.00,000.00,021.0,020.2,000.0,029.3,022.8,07.7,0000.0,0014.72,0004.26,0002.42
2024-02-29 05:58:00,SystemResetWarning,0827.4,4.99,000.00,021.0,020.2,000.0,029.3,022.8,07.7,0000.0,0014.30,0004.26,0002.43
2024-02-29 05:59:00,SystemResetWarning,0827.4,5.00,000.00,021.0,020.2,000.0,029.3,022.7,07.8,0000.0,0013.15,0004.27,0002.42
